When you browse on this site, cookies collect data to enhance your experience and personalize the content and advertising you see.
Visit our Privacy Policy to learn more. By continuing to use the site, you agree to this use of cookies and data.
  • In Hungary
  • List of Countries
  • For 7 days
  • Water Temperature
  • Satellite Maps
  • Weather Map
  • News
  • Weather Widgets
  • user-avatar
    Login

    Hourly Weather Todiresti

    Today, 13 December, Thursday

    Time Temperature Precipitation Wind Pressure Humidity
    00:00 -2°C° 0.2 mm 5 mps 753 mmHg 84%
    01:00 -2°C° 0.2 mm 5 mps 753 mmHg 85%
    02:00 -2°C° 0.2 mm 5 mps 753 mmHg 85%
    03:00 -2°C° 0.3 mm 5 mps 753 mmHg 85%
    04:00 -2°C° 0.3 mm 5 mps 753 mmHg 85%
    05:00 -2°C° 0.3 mm 5 mps 753 mmHg 86%
    06:00 -2°C° 0.3 mm 5 mps 753 mmHg 86%
    07:00 -2°C° 0.3 mm 5 mps 753 mmHg 86%
    08:00 -2°C° 0.3 mm 5 mps 753 mmHg 86%
    09:00 -2°C° 0.3 mm 5 mps 753 mmHg 85%
    10:00 -2°C° 0.3 mm 6 mps 753 mmHg 84%
    11:00 -2°C° 0.3 mm 6 mps 753 mmHg 83%
    12:00 -2°C° 0.2 mm 6 mps 753 mmHg 84%
    13:00 -1°C° 0.2 mm 5 mps 753 mmHg 84%
    14:00 -1°C° 0.2 mm 5 mps 753 mmHg 84%
    15:00 -1°C° 0.1 mm 5 mps 753 mmHg 85%
    16:00 -1°C° 0.1 mm 5 mps 753 mmHg 86%
    17:00 -1°C° 0.1 mm 4 mps 753 mmHg 87%
    18:00 -2°C° 0.1 mm 4 mps 754 mmHg 88%
    19:00 -2°C° 0.1 mm 4 mps 754 mmHg 89%
    20:00 -2°C° 0.1 mm 4 mps 754 mmHg 90%
    21:00 -2°C° 0.1 mm 4 mps 754 mmHg 90%
    22:00 -2°C° 0.1 mm 4 mps 755 mmHg 90%
    23:00 -2°C° 0.1 mm 4 mps 755 mmHg 90%

    Tomorrow, 14 December, Friday

    Time Temperature Precipitation Wind Pressure Humidity
    00:00 -2°C° 0 mm 4 mps 755 mmHg 90%
    01:00 -2°C° 0 mm 4 mps 755 mmHg 90%
    02:00 -3°C° 0 mm 4 mps 755 mmHg 89%
    03:00 -3°C° 0 mm 4 mps 756 mmHg 89%
    04:00 -3°C° 0 mm 4 mps 756 mmHg 89%
    05:00 -3°C° 0 mm 4 mps 756 mmHg 89%
    06:00 -2°C° 0 mm 3 mps 756 mmHg 89%
    07:00 -2°C° 0 mm 3 mps 756 mmHg 89%
    08:00 -2°C° 0 mm 3 mps 757 mmHg 89%
    09:00 -3°C° 0 mm 4 mps 757 mmHg 87%
    10:00 -2°C° 0 mm 4 mps 757 mmHg 86%
    11:00 -2°C° 0 mm 4 mps 758 mmHg 84%
    12:00 -1°C° 0 mm 4 mps 758 mmHg 84%
    13:00 -1°C° 0 mm 4 mps 758 mmHg 84%
    14:00 0°C° 0 mm 3 mps 758 mmHg 84%
    15:00 0°C° 0 mm 3 mps 758 mmHg 86%
    16:00 -1°C° 0 mm 2 mps 759 mmHg 88%
    17:00 -1°C° 0 mm 2 mps 759 mmHg 91%
    18:00 -2°C° 0 mm 2 mps 759 mmHg 91%
    19:00 0°C° 0 mm 1 mps 760 mmHg 92%
    20:00 0°C° 0 mm 1 mps 760 mmHg 93%
    21:00 0°C° 0 mm 1 mps 760 mmHg 93%
    22:00 -1°C° 0 mm 1 mps 760 mmHg 93%
    23:00 -1°C° 0 mm 1 mps 761 mmHg 93%

    Day after tomorrow, 15 December, Saturday

    Time Temperature Precipitation Wind Pressure Humidity
    00:00 -1°C° 0 mm 1 mps 761 mmHg 93%
    01:00 -1°C° 0 mm 1 mps 761 mmHg 93%
    02:00 -2°C° 0 mm 1 mps 761 mmHg 93%
    03:00 -2°C° 0 mm 1 mps 761 mmHg 93%
    04:00 -2°C° 0 mm 1 mps 761 mmHg 93%
    05:00 -2°C° 0 mm 1 mps 761 mmHg 93%
    06:00 -2°C° 0 mm 1 mps 761 mmHg 93%
    07:00 -2°C° 0 mm 1 mps 762 mmHg 93%
    08:00 -2°C° 0 mm 1 mps 762 mmHg 93%
    09:00 -2°C° 0 mm 1 mps 762 mmHg 91%
    10:00 -1°C° 0 mm 1 mps 762 mmHg 88%
    11:00 0°C° 0 mm 1 mps 762 mmHg 86%
    12:00 0°C° 0 mm 1 mps 762 mmHg 86%
    13:00 0°C° 0 mm 1 mps 762 mmHg 86%
    14:00 -2°C° 0 mm 2 mps 762 mmHg 85%
    15:00 -2°C° 0.1 mm 2 mps 762 mmHg 88%
    16:00 -2°C° 0.1 mm 2 mps 762 mmHg 90%
    17:00 -3°C° 0.1 mm 2 mps 762 mmHg 92%
    18:00 -3°C° 0.1 mm 2 mps 762 mmHg 92%
    19:00 -3°C° 0.1 mm 2 mps 762 mmHg 92%
    20:00 -2°C° 0.1 mm 2 mps 762 mmHg 92%
    21:00 -2°C° 0.3 mm 3 mps 762 mmHg 92%
    22:00 -2°C° 0.3 mm 3 mps 761 mmHg 92%
    23:00 -2°C° 0.3 mm 3 mps 761 mmHg 92%

    16 December, Sunday

    Time Temperature Precipitation Wind Pressure Humidity
    00:00 -3°C° 0.3 mm 4 mps 761 mmHg 92%
    01:00 -3°C° 0.3 mm 4 mps 761 mmHg 93%
    02:00 -3°C° 0.3 mm 4 mps 760 mmHg 93%
    03:00 -3°C° 0.6 mm 4 mps 760 mmHg 93%
    04:00 -4°C° 0.6 mm 5 mps 760 mmHg 93%
    05:00 -4°C° 0.6 mm 5 mps 759 mmHg 94%
    06:00 -4°C° 0.7 mm 5 mps 759 mmHg 94%
    07:00 -4°C° 0.7 mm 5 mps 759 mmHg 94%
    08:00 -4°C° 0.7 mm 5 mps 759 mmHg 94%
    09:00 -4°C° 0.8 mm 5 mps 758 mmHg 94%
    10:00 -2°C° 0.8 mm 5 mps 758 mmHg 94%
    11:00 -2°C° 0.8 mm 5 mps 758 mmHg 95%
    12:00 -2°C° 1 mm 5 mps 757 mmHg 95%
    13:00 -2°C° 1 mm 5 mps 756 mmHg 95%
    14:00 -1°C° 1 mm 5 mps 756 mmHg 96%
    15:00 -1°C° 0.9 mm 5 mps 755 mmHg 96%
    16:00 -2°C° 0.9 mm 6 mps 755 mmHg 96%
    17:00 -1°C° 0.9 mm 6 mps 755 mmHg 96%
    18:00 -1°C° 1.6 mm 6 mps 755 mmHg 96%
    19:00 -1°C° 1.6 mm 6 mps 755 mmHg 97%
    20:00 -1°C° 1.6 mm 6 mps 754 mmHg 97%
    21:00 0°C° 1.8 mm 5 mps 754 mmHg 96%
    22:00 0°C° 1.8 mm 5 mps 754 mmHg 96%
    23:00 0°C° 1.8 mm 5 mps 754 mmHg 96%

    17 December, Monday

    Time Temperature Precipitation Wind Pressure Humidity
    00:00 0°C° 0.9 mm 5 mps 754 mmHg 96%
    01:00 -1°C° 0.9 mm 5 mps 754 mmHg 96%
    02:00 -1°C° 0.9 mm 5 mps 754 mmHg 96%
    03:00 -1°C° 1.4 mm 4 mps 754 mmHg 96%
    04:00 -1°C° 1.4 mm 4 mps 754 mmHg 97%
    05:00 -1°C° 1.4 mm 4 mps 754 mmHg 97%
    06:00 -1°C° 1.2 mm 4 mps 754 mmHg 97%
    07:00 0°C° 1.2 mm 3 mps 754 mmHg 97%
    08:00 0°C° 1.2 mm 3 mps 754 mmHg 97%
    09:00 0°C° 0.6 mm 3 mps 754 mmHg 97%
    10:00 0°C° 0.6 mm 3 mps 754 mmHg 97%
    11:00 0°C° 0.6 mm 3 mps 755 mmHg 97%
    12:00 -1°C° 0.5 mm 3 mps 754 mmHg 97%
    13:00 -1°C° 0.5 mm 3 mps 754 mmHg 97%
    14:00 -1°C° 0.5 mm 2 mps 754 mmHg 97%
    15:00 -1°C° 0.5 mm 2 mps 754 mmHg 97%
    16:00 -1°C° 0.5 mm 2 mps 755 mmHg 97%
    17:00 -1°C° 0.5 mm 2 mps 755 mmHg 97%
    18:00 -1°C° 0.5 mm 2 mps 755 mmHg 97%
    19:00 -1°C° 0.5 mm 2 mps 755 mmHg 97%
    20:00 -2°C° 0.5 mm 2 mps 756 mmHg 97%
    21:00 -2°C° 0.4 mm 2 mps 756 mmHg 97%
    22:00 -2°C° 0.4 mm 2 mps 756 mmHg 97%
    23:00 -2°C° 0.4 mm 2 mps 756 mmHg 97%

    18 December, Tuesday

    Time Temperature Precipitation Wind Pressure Humidity
    00:00 -2°C° 0.4 mm 2 mps 756 mmHg 97%
    01:00 -2°C° 0.4 mm 2 mps 756 mmHg 97%
    02:00 -2°C° 0.4 mm 2 mps 756 mmHg 96%
    03:00 -2°C° 0.3 mm 2 mps 756 mmHg 96%
    04:00 -2°C° 0.3 mm 3 mps 756 mmHg 96%
    05:00 -2°C° 0.3 mm 3 mps 756 mmHg 96%
    06:00 -4°C° 0.1 mm 3 mps 756 mmHg 95%
    07:00 -4°C° 0.1 mm 3 mps 757 mmHg 95%
    08:00 -4°C° 0.1 mm 3 mps 757 mmHg 95%
    09:00 -4°C° 0.1 mm 3 mps 757 mmHg 94%
    10:00 -3°C° 0.1 mm 4 mps 757 mmHg 93%
    11:00 -3°C° 0.1 mm 4 mps 757 mmHg 92%
    12:00 -3°C° 0 mm 4 mps 757 mmHg 92%
    13:00 -3°C° 0 mm 4 mps 757 mmHg 91%
    14:00 -4°C° 0 mm 5 mps 757 mmHg 90%
    15:00 -3°C° 0 mm 4 mps 757 mmHg 90%
    16:00 -4°C° 0 mm 4 mps 757 mmHg 91%
    17:00 -5°C° 0 mm 3 mps 758 mmHg 91%
    18:00 -6°C° 0 mm 3 mps 758 mmHg 92%
    19:00 -6°C° 0 mm 3 mps 758 mmHg 92%
    20:00 -7°C° 0 mm 3 mps 758 mmHg 92%
    21:00 -7°C° 0 mm 3 mps 759 mmHg 93%
    22:00 -8°C° 0 mm 3 mps 759 mmHg 93%
    23:00 -9°C° 0 mm 3 mps 759 mmHg 93%
    Show more